AFR22 KEWR-LFPG

Flight info

Callsign AFR22
Flight time 6h 29m
Altitude 35000
Route MERIT DCT HFD DCT PUT DCT BOS DCT BRADD N175G PORTI/M084F370 DCT 47N050W 49N040W 51N030W 53N020W DCT MALOT DCT GISTI/N0479F390 DCT NORLA DCT PEWBI DCT OXLOW M140 SAM L620 MID/N0501F290 Y803 SFD UM605 BIBAX
Aircraft B77W/H-SDE1E2E3FGHIJ2J3J4J5M1RWXY/LB1D1

Departure

Time 2026-04-25 19:25
Airport Newark Liberty International Airport (KEWR)

Arrival

Time 2026-04-26 01:54
Airport Charles de Gaulle International Airport (LFPG)
Time Latitude Longitude Altitude Speed Heading
2026-04-25 18:11 40.69915 -74.17767 26 ft 0 kts 242°
2026-04-25 19:11 40.69915 -74.17772 26 ft 4 kts 271°
2026-04-25 19:11 40.69913 -74.17765 26 ft 4 kts 283°
2026-04-25 19:11 40.69914 -74.17739 25 ft 4 kts 215°
2026-04-25 19:11 40.69927 -74.17720 24 ft 3 kts 248°
2026-04-25 19:12 40.69940 -74.17694 27 ft 4 kts 206°
2026-04-25 19:12 40.69956 -74.17685 27 ft 2 kts 189°
2026-04-25 19:12 40.69963 -74.17683 26 ft 4 kts 129°
2026-04-25 19:12 40.69974 -74.17694 26 ft 4 kts 103°
2026-04-25 19:13 40.69980 -74.17720 25 ft 4 kts 107°
2026-04-25 19:13 40.69985 -74.17754 24 ft 4 kts 93°
2026-04-25 19:13 40.69986 -74.17786 24 ft 1 kts 95°
2026-04-25 19:13 40.69987 -74.17792 24 ft 2 kts 95°
2026-04-25 19:16 40.69986 -74.17782 24 ft 5 kts 95°
2026-04-25 19:16 40.69982 -74.17732 24 ft 6 kts 95°
2026-04-25 19:16 40.69979 -74.17681 28 ft 6 kts 95°
2026-04-25 19:17 40.69975 -74.17630 29 ft 6 kts 95°
2026-04-25 19:17 40.69971 -74.17565 28 ft 12 kts 95°
2026-04-25 19:17 40.69956 -74.17428 27 ft 16 kts 105°
2026-04-25 19:17 40.69907 -74.17299 27 ft 16 kts 125°
2026-04-25 19:18 40.69836 -74.17190 26 ft 16 kts 133°
2026-04-25 19:18 40.69750 -74.17099 28 ft 16 kts 148°
2026-04-25 19:18 40.69653 -74.17032 29 ft 16 kts 158°
2026-04-25 19:18 40.69549 -74.16993 27 ft 16 kts 168°
2026-04-25 19:19 40.69440 -74.16974 27 ft 16 kts 178°
2026-04-25 19:19 40.69331 -74.16986 28 ft 16 kts 193°
2026-04-25 19:19 40.69228 -74.17033 25 ft 16 kts 203°
2026-04-25 19:19 40.69160 -74.17075 25 ft 16 kts 205°
2026-04-25 19:20 40.69029 -74.17158 23 ft 16 kts 206°
2026-04-25 19:20 40.68930 -74.17220 29 ft 16 kts 205°
2026-04-25 19:20 40.68831 -74.17282 28 ft 16 kts 205°
2026-04-25 19:20 40.68732 -74.17345 30 ft 16 kts 207°
2026-04-25 19:21 40.68645 -74.17403 32 ft 11 kts 206°
2026-04-25 19:21 40.68506 -74.17488 29 ft 11 kts 206°
2026-04-25 19:21 40.68437 -74.17532 29 ft 11 kts 205°
2026-04-25 19:22 40.68369 -74.17576 28 ft 11 kts 206°
2026-04-25 19:22 40.68295 -74.17623 28 ft 15 kts 206°
2026-04-25 19:22 40.68024 -74.17796 26 ft 23 kts 206°
2026-04-25 19:23 40.67909 -74.17870 27 ft 13 kts 206°
2026-04-25 19:23 40.67751 -74.17967 27 ft 13 kts 197°
2026-04-25 19:23 40.67684 -74.17909 31 ft 13 kts 109°
2026-04-25 19:24 40.67732 -74.17824 28 ft 13 kts 26°
2026-04-25 19:24 40.67907 -74.17707 24 ft 62 kts 26°
2026-04-25 19:24 40.69492 -74.16741 62 ft 175 kts 28°
2026-04-25 19:25 40.71535 -74.15124 1337 ft 174 kts 49°
2026-04-25 19:25 40.72422 -74.13984 1823 ft 186 kts 47°
2026-04-25 19:25 40.73435 -74.12751 2075 ft 211 kts 48°
2026-04-25 19:26 40.74577 -74.11355 2344 ft 237 kts 49°
2026-04-25 19:26 40.75725 -74.09724 2942 ft 247 kts 52°
2026-04-25 19:26 40.76874 -74.07964 3598 ft 259 kts 53°
2026-04-25 19:26 40.78072 -74.06114 4257 ft 270 kts 52°
2026-04-25 19:27 40.79315 -74.04202 4943 ft 280 kts 51°
2026-04-25 19:27 40.80170 -74.02891 5320 ft 287 kts 50°
2026-04-25 19:27 40.81936 -74.00190 6294 ft 296 kts 49°
2026-04-25 19:27 40.83298 -73.98116 7001 ft 301 kts 48°
2026-04-25 19:28 40.84668 -73.96038 7812 ft 300 kts 47°
2026-04-25 19:28 40.86043 -73.93946 8587 ft 302 kts 47°
2026-04-25 19:28 40.87419 -73.91845 9377 ft 304 kts 47°
2026-04-25 19:28 40.88811 -73.89724 10119 ft 307 kts 46°
2026-04-25 19:29 40.90230 -73.87568 10661 ft 318 kts 46°
2026-04-25 19:29 40.91742 -73.85275 10845 ft 343 kts 46°
2026-04-25 19:29 40.93346 -73.82841 11032 ft 368 kts 47°
2026-04-25 19:29 40.95078 -73.80206 11303 ft 389 kts 47°
2026-04-25 19:30 40.96876 -73.77462 11925 ft 399 kts 47°
2026-04-25 19:30 40.98708 -73.74662 12785 ft 406 kts 47°
2026-04-25 19:30 41.00567 -73.71817 13687 ft 411 kts 47°
2026-04-25 19:30 41.02451 -73.68932 14527 ft 417 kts 46°
2026-04-25 19:31 41.04359 -73.66008 15322 ft 423 kts 46°
2026-04-25 19:31 41.06296 -73.63040 16105 ft 428 kts 46°
2026-04-25 19:31 41.08259 -73.60028 16935 ft 433 kts 45°
2026-04-25 19:31 41.10239 -73.56988 17747 ft 438 kts 45°
2026-04-25 19:32 41.12240 -73.53911 18533 ft 443 kts 45°
2026-04-25 19:32 41.14266 -73.50794 19234 ft 448 kts 45°
2026-04-25 19:32 41.16307 -73.47648 19939 ft 452 kts 45°
2026-04-25 19:32 41.17003 -73.46576 20199 ft 453 kts 45°
2026-04-25 19:33 41.20443 -73.41265 21348 ft 460 kts 45°
2026-04-25 19:33 41.22540 -73.38026 22022 ft 465 kts 45°
2026-04-25 19:33 41.24660 -73.34745 22678 ft 469 kts 45°
2026-04-25 19:33 41.26793 -73.31442 23342 ft 474 kts 45°
2026-04-25 19:34 41.28948 -73.28096 23971 ft 478 kts 44°
2026-04-25 19:34 41.31120 -73.24723 24509 ft 482 kts 44°
2026-04-25 19:34 41.33310 -73.21320 25023 ft 486 kts 44°
2026-04-25 19:34 41.35488 -73.17933 25510 ft 490 kts 44°
2026-04-25 19:35 41.37684 -73.14435 26010 ft 496 kts 47°
2026-04-25 19:35 41.39710 -73.10593 26470 ft 506 kts 54°
2026-04-25 19:35 41.41482 -73.06591 26930 ft 510 kts 56°
2026-04-25 19:35 41.43255 -73.02481 27418 ft 514 kts 56°
2026-04-25 19:36 41.45040 -72.98334 27882 ft 517 kts 56°
2026-04-25 19:36 41.46841 -72.94180 28341 ft 520 kts 55°
2026-04-25 19:36 41.48665 -72.90000 28789 ft 522 kts 54°
2026-04-25 19:36 41.50506 -72.85804 29073 ft 528 kts 54°
2026-04-25 19:37 41.54235 -72.77313 29124 ft 529 kts 54°
2026-04-25 19:37 41.57928 -72.68867 29118 ft 525 kts 55°
2026-04-25 19:38 41.61601 -72.60447 29102 ft 524 kts 55°
2026-04-25 19:38 41.65267 -72.52047 29104 ft 523 kts 54°
2026-04-25 19:39 41.69019 -72.43719 29116 ft 522 kts 53°
2026-04-25 19:39 41.72791 -72.35397 29112 ft 523 kts 53°
2026-04-25 19:40 41.76546 -72.27050 29109 ft 524 kts 53°
2026-04-25 19:40 41.80292 -72.18667 29104 ft 524 kts 53°
2026-04-25 19:41 41.84030 -72.10279 29102 ft 524 kts 53°
2026-04-25 19:41 41.86505 -72.04713 29104 ft 524 kts 53°
2026-04-25 19:42 41.91490 -71.93475 29105 ft 524 kts 53°
2026-04-25 19:42 41.95207 -71.85070 29117 ft 523 kts 53°
2026-04-25 19:43 41.98370 -71.78155 29118 ft 521 kts 51°
2026-04-25 19:43 42.02305 -71.69994 29102 ft 519 kts 51°
2026-04-25 19:44 42.06221 -71.61857 29102 ft 517 kts 51°
2026-04-25 19:44 42.10094 -71.53699 29117 ft 517 kts 51°
2026-04-25 19:45 42.13948 -71.45524 29111 ft 517 kts 51°
2026-04-25 19:45 42.17798 -71.37341 29118 ft 517 kts 51°
2026-04-25 19:46 42.21647 -71.29138 29129 ft 518 kts 51°
2026-04-25 19:46 42.25499 -71.20910 29145 ft 519 kts 51°
2026-04-25 19:47 42.29353 -71.12651 29127 ft 520 kts 51°
2026-04-25 19:47 42.33203 -71.04377 29137 ft 521 kts 52°
2026-04-25 19:48 42.36451 -70.95598 29136 ft 531 kts 63°
2026-04-25 19:48 42.38649 -70.86006 29158 ft 535 kts 69°
2026-04-25 19:49 42.40343 -70.77884 29147 ft 536 kts 69°
2026-04-25 19:49 42.42721 -70.66631 29126 ft 535 kts 68°
2026-04-25 19:50 42.45832 -70.52132 29161 ft 534 kts 68°
2026-04-25 19:51 42.47901 -70.42467 29140 ft 534 kts 68°
2026-04-25 19:51 42.49957 -70.32806 29139 ft 533 kts 68°
2026-04-25 19:52 42.52001 -70.23145 29127 ft 533 kts 68°
2026-04-25 19:52 42.54032 -70.13496 29147 ft 533 kts 67°
2026-04-25 19:53 42.56061 -70.03823 29133 ft 533 kts 67°
2026-04-25 19:53 42.58078 -69.94157 29132 ft 533 kts 67°
2026-04-25 19:54 42.60088 -69.84477 29151 ft 533 kts 67°
2026-04-25 19:54 42.62087 -69.74805 29127 ft 532 kts 67°
2026-04-25 19:55 42.64074 -69.65144 29121 ft 530 kts 67°
2026-04-25 19:55 42.66050 -69.55497 29122 ft 530 kts 67°
2026-04-25 19:56 42.68014 -69.45857 29123 ft 529 kts 67°
2026-04-25 19:56 42.69970 -69.36220 29116 ft 529 kts 67°
2026-04-25 19:57 42.71919 -69.26567 29124 ft 530 kts 67°
2026-04-25 19:57 42.73851 -69.16957 29142 ft 531 kts 66°
2026-04-25 19:58 42.75796 -69.07235 29114 ft 533 kts 67°
2026-04-25 19:58 42.77737 -68.97477 29109 ft 535 kts 67°
2026-04-25 19:59 42.79672 -68.87698 29109 ft 535 kts 67°
2026-04-25 19:59 42.81603 -68.77900 29110 ft 536 kts 66°
2026-04-25 20:00 42.83525 -68.68095 29098 ft 536 kts 66°
2026-04-25 20:00 42.85440 -68.58283 29103 ft 535 kts 67°
2026-04-25 20:01 42.88289 -68.43573 29106 ft 535 kts 66°
2026-04-25 20:01 42.90178 -68.33772 29115 ft 534 kts 67°
2026-04-25 20:02 42.92040 -68.24055 29101 ft 532 kts 67°
2026-04-25 20:02 42.93903 -68.14287 29105 ft 531 kts 67°
2026-04-25 20:03 42.95754 -68.04526 29093 ft 531 kts 66°
2026-04-25 20:03 42.97596 -67.94780 29089 ft 530 kts 67°
2026-04-25 20:04 42.99426 -67.85035 29088 ft 529 kts 67°
2026-04-25 20:04 43.01247 -67.75296 29082 ft 529 kts 66°
2026-04-25 20:05 43.03060 -67.65546 29074 ft 529 kts 67°
2026-04-25 20:05 43.04863 -67.55794 29087 ft 529 kts 67°
2026-04-25 20:06 43.06659 -67.46031 29075 ft 529 kts 67°
2026-04-25 20:06 43.08448 -67.36258 29075 ft 530 kts 67°
2026-04-25 20:07 43.10230 -67.26473 29077 ft 530 kts 67°
2026-04-25 20:07 43.12003 -67.16675 29066 ft 530 kts 67°
2026-04-25 20:08 43.13766 -67.06890 29061 ft 529 kts 67°
2026-04-25 20:08 43.15720 -66.97318 29055 ft 519 kts 60°
2026-04-25 20:09 43.18471 -66.88271 29101 ft 513 kts 58°
2026-04-25 20:09 43.21269 -66.79269 29050 ft 513 kts 58°
2026-04-25 20:10 43.24024 -66.70257 29061 ft 511 kts 59°
2026-04-25 20:10 43.26734 -66.61262 29041 ft 509 kts 59°
2026-04-25 20:11 43.29419 -66.52292 29040 ft 507 kts 59°
2026-04-25 20:11 43.32090 -66.43356 29028 ft 505 kts 61°
2026-04-25 20:12 43.34737 -66.34458 29024 ft 502 kts 61°
2026-04-25 20:12 43.36481 -66.28584 29038 ft 501 kts 61°
2026-04-25 20:13 43.39980 -66.16763 29028 ft 501 kts 62°
2026-04-25 20:13 43.42596 -66.07894 29034 ft 499 kts 63°
2026-04-25 20:14 43.45186 -65.99073 29013 ft 496 kts 63°
2026-04-25 20:14 43.47759 -65.90279 29016 ft 494 kts 63°
2026-04-25 20:15 43.50320 -65.81503 29015 ft 494 kts 63°
2026-04-25 20:15 43.52878 -65.72708 29017 ft 494 kts 64°
2026-04-25 20:16 43.55424 -65.63916 29010 ft 494 kts 65°
2026-04-25 20:16 43.57959 -65.55128 28988 ft 492 kts 65°
2026-04-25 20:17 43.60478 -65.46370 28994 ft 491 kts 65°
2026-04-25 20:17 43.62989 -65.37614 28992 ft 490 kts 65°
2026-04-25 20:18 43.65488 -65.28869 28991 ft 490 kts 65°
2026-04-25 20:18 43.67979 -65.20115 28985 ft 489 kts 66°
2026-04-25 20:19 43.70464 -65.11356 28993 ft 489 kts 66°
2026-04-25 20:19 43.72940 -65.02595 28982 ft 490 kts 66°
2026-04-25 20:20 43.75410 -64.93825 28989 ft 490 kts 66°
2026-04-25 20:20 43.77876 -64.85040 28977 ft 490 kts 66°
2026-04-25 20:21 43.80333 -64.76256 28976 ft 489 kts 66°
2026-04-25 20:21 43.82783 -64.67463 28973 ft 489 kts 66°
2026-04-25 20:22 43.84400 -64.61642 28973 ft 489 kts 66°
2026-04-25 20:22 43.87665 -64.49850 28960 ft 490 kts 66°
2026-04-25 20:23 43.90079 -64.41094 28974 ft 490 kts 66°
2026-04-25 20:23 43.92503 -64.32267 28976 ft 490 kts 66°
2026-04-25 20:24 43.94921 -64.23433 28966 ft 490 kts 66°
2026-04-25 20:24 43.97334 -64.14588 28956 ft 490 kts 67°
2026-04-25 20:25 43.99741 -64.05726 28960 ft 490 kts 67°
2026-04-25 20:25 44.02140 -63.96867 28958 ft 491 kts 67°
2026-04-25 20:26 44.04537 -63.87980 28957 ft 491 kts 67°
2026-04-25 20:26 44.06924 -63.79097 28947 ft 491 kts 67°
2026-04-25 20:27 44.09306 -63.70199 28947 ft 491 kts 67°
2026-04-25 20:27 44.11685 -63.61284 28940 ft 491 kts 67°
2026-04-25 20:28 44.14038 -63.52430 28932 ft 491 kts 67°
2026-04-25 20:28 44.16400 -63.43510 28942 ft 492 kts 67°
2026-04-25 20:29 44.18762 -63.34558 28931 ft 492 kts 67°
2026-04-25 20:29 44.21115 -63.25602 28921 ft 492 kts 67°
2026-04-25 20:30 44.23463 -63.16633 28922 ft 492 kts 67°
2026-04-25 20:30 44.25803 -63.07659 28917 ft 492 kts 67°
2026-04-25 20:31 44.28136 -62.98680 28912 ft 492 kts 67°
2026-04-25 20:31 44.30461 -62.89697 28922 ft 492 kts 67°
2026-04-25 20:32 44.32784 -62.80690 28905 ft 493 kts 67°
2026-04-25 20:32 44.35101 -62.71670 28901 ft 493 kts 67°
2026-04-25 20:33 44.37412 -62.62641 28901 ft 494 kts 67°
2026-04-25 20:33 44.38939 -62.56653 28907 ft 494 kts 67°
2026-04-25 20:34 44.42018 -62.44533 28892 ft 494 kts 66°
2026-04-25 20:34 44.43925 -62.36997 28890 ft 495 kts 67°
2026-04-25 20:35 44.46213 -62.27917 28887 ft 495 kts 67°
2026-04-25 20:35 44.48864 -62.17355 28875 ft 495 kts 67°
2026-04-25 20:36 44.51136 -62.08265 28884 ft 495 kts 66°
2026-04-25 20:36 44.53035 -62.00639 28875 ft 495 kts 66°
2026-04-25 20:37 44.55294 -61.91535 28869 ft 494 kts 66°
2026-04-25 20:37 44.57543 -61.82436 28863 ft 494 kts 66°
2026-04-25 20:38 44.59785 -61.73326 28890 ft 494 kts 66°
2026-04-25 20:38 44.62020 -61.64211 28862 ft 493 kts 66°
2026-04-25 20:39 44.64241 -61.55113 28841 ft 492 kts 66°
2026-04-25 20:39 44.66081 -61.47553 28848 ft 492 kts 66°
2026-04-25 20:40 44.68640 -61.36992 28842 ft 491 kts 66°
2026-04-25 20:40 44.70835 -61.27896 28834 ft 491 kts 66°
2026-04-25 20:41 44.73016 -61.18814 28821 ft 489 kts 66°
2026-04-25 20:41 44.75189 -61.09738 28817 ft 490 kts 66°
2026-04-25 20:42 44.77355 -61.00649 28807 ft 490 kts 67°
2026-04-25 20:42 44.79518 -60.91542 28806 ft 491 kts 67°
2026-04-25 20:43 44.81676 -60.82412 28807 ft 491 kts 66°
2026-04-25 20:43 44.83823 -60.73287 28774 ft 490 kts 66°
2026-04-25 20:44 44.85958 -60.64182 28784 ft 489 kts 66°
2026-04-25 20:44 44.88070 -60.55136 28779 ft 489 kts 67°
2026-04-25 20:45 44.90193 -60.46007 28785 ft 490 kts 67°
2026-04-25 20:45 44.92312 -60.36860 28754 ft 491 kts 67°
2026-04-25 20:46 44.94426 -60.27691 28769 ft 491 kts 67°
2026-04-25 20:46 44.96534 -60.18511 28758 ft 492 kts 67°
2026-04-25 20:47 44.98636 -60.09316 28752 ft 492 kts 67°
2026-04-25 20:47 45.00730 -60.00118 28758 ft 492 kts 67°
2026-04-25 20:48 45.02817 -59.90913 28759 ft 493 kts 67°
2026-04-25 20:48 45.04900 -59.81685 28742 ft 493 kts 67°
2026-04-25 20:49 45.06975 -59.72452 28744 ft 493 kts 67°
2026-04-25 20:49 45.09045 -59.63205 28740 ft 493 kts 67°
2026-04-25 20:50 45.11108 -59.53948 28730 ft 494 kts 67°
2026-04-25 20:50 45.13167 -59.44667 28734 ft 494 kts 68°
2026-04-25 20:51 45.15203 -59.35447 28735 ft 494 kts 68°
2026-04-25 20:51 45.17249 -59.26145 28719 ft 495 kts 68°
2026-04-25 20:52 45.18958 -59.18341 28729 ft 495 kts 68°
2026-04-25 20:52 45.21322 -59.07504 28708 ft 495 kts 68°
2026-04-25 20:53 45.23347 -58.98173 28701 ft 495 kts 68°
2026-04-25 20:53 45.25366 -58.88825 28695 ft 495 kts 68°
2026-04-25 20:54 45.27377 -58.79476 28690 ft 495 kts 68°
2026-04-25 20:54 45.29382 -58.70114 28694 ft 496 kts 68°
2026-04-25 20:55 45.31381 -58.60736 28678 ft 496 kts 68°
2026-04-25 20:55 45.33372 -58.51351 28679 ft 496 kts 68°
2026-04-25 20:56 45.35355 -58.41960 28673 ft 496 kts 68°
2026-04-25 20:56 45.37330 -58.32567 28667 ft 496 kts 69°
2026-04-25 20:57 45.39300 -58.23155 28666 ft 497 kts 69°
2026-04-25 20:57 45.41265 -58.13723 28663 ft 497 kts 69°
2026-04-25 20:58 45.43222 -58.04283 28651 ft 497 kts 69°
2026-04-25 20:58 45.45168 -57.94849 28639 ft 496 kts 69°
2026-04-25 20:59 45.47107 -57.85409 28654 ft 497 kts 69°
2026-04-25 20:59 45.49044 -57.75939 28634 ft 498 kts 69°
2026-04-25 21:00 45.50323 -57.69662 28636 ft 499 kts 69°
2026-04-25 21:01 45.53849 -57.52240 28625 ft 499 kts 70°
2026-04-25 21:01 45.55757 -57.42745 28642 ft 497 kts 70°
2026-04-25 21:02 45.57655 -57.33259 28611 ft 497 kts 70°
2026-04-25 21:02 45.59541 -57.23787 28605 ft 496 kts 70°
2026-04-25 21:03 45.61420 -57.14308 28597 ft 496 kts 70°
2026-04-25 21:03 45.63291 -57.04822 28591 ft 496 kts 70°
2026-04-25 21:04 45.65155 -56.95327 28605 ft 497 kts 71°
2026-04-25 21:04 45.67016 -56.85799 28587 ft 497 kts 71°
2026-04-25 21:05 45.68867 -56.76273 28581 ft 497 kts 71°
2026-04-25 21:05 45.70708 -56.66748 28578 ft 496 kts 71°
2026-04-25 21:06 45.72539 -56.57233 28573 ft 496 kts 71°
2026-04-25 21:06 45.74361 -56.47716 28569 ft 496 kts 72°
2026-04-25 21:07 45.76163 -56.38256 28564 ft 495 kts 72°
2026-04-25 21:07 45.77980 -56.28673 28557 ft 495 kts 72°
2026-04-25 21:08 45.79764 -56.19217 28561 ft 495 kts 72°
2026-04-25 21:08 45.81552 -56.09690 28548 ft 495 kts 72°
2026-04-25 21:09 45.84220 -55.95380 28541 ft 495 kts 72°
2026-04-25 21:09 45.85991 -55.85823 28536 ft 496 kts 72°
2026-04-25 21:10 45.87753 -55.76266 28535 ft 496 kts 72°
2026-04-25 21:10 45.89508 -55.66692 28534 ft 496 kts 72°
2026-04-25 21:11 45.91252 -55.57131 28528 ft 494 kts 72°
2026-04-25 21:11 45.92981 -55.47600 28520 ft 492 kts 72°
2026-04-25 21:12 45.94698 -55.38088 28511 ft 491 kts 72°
2026-04-25 21:12 45.96117 -55.30195 28513 ft 491 kts 73°
2026-04-25 21:13 45.98091 -55.19156 28513 ft 491 kts 73°
2026-04-25 21:13 45.99779 -55.09653 28505 ft 490 kts 73°
2026-04-25 21:14 46.01458 -55.00159 28504 ft 489 kts 73°
2026-04-25 21:14 46.03126 -54.90670 28488 ft 489 kts 73°
2026-04-25 21:15 46.04786 -54.81186 28480 ft 489 kts 73°
2026-04-25 21:15 46.06436 -54.71701 28501 ft 488 kts 73°
2026-04-25 21:16 46.08076 -54.62225 28471 ft 487 kts 73°
2026-04-25 21:16 46.09706 -54.52755 28468 ft 486 kts 73°
2026-04-25 21:17 46.11324 -54.43302 28468 ft 486 kts 74°
2026-04-25 21:17 46.12934 -54.33849 28466 ft 486 kts 73°
2026-04-25 21:18 46.14537 -54.24384 28472 ft 486 kts 73°
2026-04-25 21:18 46.16120 -54.14987 28451 ft 485 kts 73°
2026-04-25 21:19 46.17703 -54.05535 28443 ft 484 kts 74°
2026-04-25 21:19 46.19278 -53.96082 28435 ft 484 kts 74°
2026-04-25 21:20 46.20326 -53.89765 28437 ft 484 kts 74°
2026-04-25 21:20 46.22401 -53.77182 28436 ft 484 kts 73°
2026-04-25 21:21 46.23944 -53.67755 28424 ft 480 kts 73°
2026-04-25 21:21 46.25464 -53.58424 28401 ft 475 kts 73°
2026-04-25 21:22 46.26966 -53.49156 28403 ft 473 kts 73°
2026-04-25 21:22 46.28458 -53.39904 28401 ft 473 kts 73°
2026-04-25 21:23 46.29947 -53.30615 28419 ft 474 kts 72°
2026-04-25 21:23 46.31431 -53.21306 28390 ft 475 kts 72°
2026-04-25 21:24 46.32904 -53.12010 28386 ft 474 kts 73°
2026-04-25 21:24 46.34370 -53.02715 28373 ft 474 kts 72°
2026-04-25 21:25 46.35821 -52.93452 28379 ft 475 kts 72°
2026-04-25 21:25 46.37276 -52.84108 28398 ft 477 kts 72°
2026-04-25 21:26 46.38728 -52.74734 28375 ft 477 kts 72°
2026-04-25 21:26 46.40168 -52.65370 28362 ft 476 kts 72°
2026-04-25 21:27 46.41601 -52.56011 28359 ft 476 kts 72°
2026-04-25 21:27 46.43026 -52.46648 28354 ft 475 kts 72°
2026-04-25 21:28 46.44444 -52.37285 28400 ft 477 kts 71°
2026-04-25 21:28 46.45621 -52.29467 28352 ft 478 kts 71°
2026-04-25 21:29 46.47028 -52.20052 28352 ft 478 kts 71°
2026-04-25 21:29 46.48429 -52.10638 28344 ft 478 kts 71°
2026-04-25 21:30 46.49843 -52.01213 28340 ft 476 kts 69°
2026-04-25 21:30 46.51543 -51.93706 28358 ft 469 kts 62°
2026-04-25 21:31 46.54290 -51.83371 28339 ft 470 kts 62°
2026-04-25 21:31 46.56618 -51.74500 28323 ft 470 kts 63°
2026-04-25 21:32 46.58915 -51.65615 28343 ft 470 kts 63°
2026-04-25 21:32 46.61204 -51.56696 28313 ft 471 kts 63°
2026-04-25 21:33 46.63349 -51.48301 28308 ft 471 kts 63°
2026-04-25 21:33 46.65623 -51.39375 28302 ft 471 kts 63°
2026-04-25 21:34 46.67892 -51.30436 28293 ft 471 kts 63°
2026-04-25 21:34 46.70140 -51.21546 28293 ft 471 kts 63°
2026-04-25 21:35 46.72411 -51.12534 28304 ft 471 kts 64°
2026-04-25 21:35 46.74647 -51.03617 28288 ft 471 kts 64°
2026-04-25 21:36 46.76908 -50.94569 28270 ft 471 kts 64°
2026-04-25 21:36 46.79130 -50.85641 28272 ft 471 kts 64°
2026-04-25 21:37 46.81000 -50.78101 28288 ft 473 kts 65°
2026-04-25 21:37 46.83613 -50.67528 28268 ft 479 kts 66°
2026-04-25 21:38 46.85873 -50.58337 28256 ft 482 kts 66°
2026-04-25 21:38 46.88136 -50.49095 28241 ft 484 kts 66°
2026-04-25 21:39 46.90393 -50.39833 28239 ft 483 kts 66°
2026-04-25 21:39 46.92640 -50.30586 28246 ft 482 kts 67°
2026-04-25 21:40 46.94878 -50.21327 28226 ft 482 kts 67°
2026-04-25 21:40 46.97107 -50.12072 28218 ft 482 kts 67°
2026-04-25 21:41 46.99329 -50.02814 28218 ft 482 kts 67°
2026-04-25 21:41 47.01583 -49.93564 28235 ft 482 kts 67°
2026-04-25 21:42 47.03920 -49.84322 28206 ft 486 kts 68°
2026-04-25 21:42 47.06275 -49.75000 28206 ft 489 kts 68°
2026-04-25 21:43 47.08610 -49.65669 28201 ft 491 kts 68°
2026-04-25 21:43 47.10947 -49.56254 28197 ft 491 kts 68°
2026-04-25 21:44 47.13276 -49.46828 28202 ft 490 kts 69°
2026-04-25 21:45 47.16745 -49.32714 28198 ft 489 kts 69°
2026-04-25 21:45 47.19044 -49.23320 28199 ft 488 kts 69°
2026-04-25 21:46 47.21331 -49.13931 28198 ft 488 kts 69°
2026-04-25 21:46 47.23614 -49.04523 28204 ft 488 kts 69°
2026-04-25 21:47 47.25885 -48.95117 28201 ft 488 kts 69°
2026-04-25 21:47 47.28152 -48.85694 28201 ft 488 kts 70°
2026-04-25 21:48 47.30409 -48.76266 28204 ft 488 kts 69°
2026-04-25 21:48 47.32663 -48.66820 28211 ft 489 kts 70°
2026-04-25 21:49 47.34908 -48.57361 28206 ft 489 kts 70°
2026-04-25 21:49 47.37133 -48.47953 28219 ft 489 kts 70°
2026-04-25 21:50 47.39364 -48.38474 28226 ft 489 kts 70°
2026-04-25 21:50 47.41587 -48.28991 28222 ft 489 kts 71°
2026-04-25 21:51 47.43802 -48.19499 28227 ft 489 kts 71°
2026-04-25 21:51 47.46008 -48.10001 28226 ft 489 kts 71°
2026-04-25 21:52 47.48205 -48.00504 28236 ft 489 kts 72°
2026-04-25 21:52 47.50405 -47.90951 28252 ft 492 kts 73°
2026-04-25 21:53 47.52610 -47.81337 28247 ft 495 kts 72°
2026-04-25 21:53 47.54813 -47.71680 28251 ft 495 kts 73°
2026-04-25 21:54 47.57008 -47.62014 28257 ft 495 kts 72°
2026-04-25 21:54 47.59191 -47.52365 28262 ft 494 kts 73°
2026-04-25 21:55 47.61362 -47.42725 28262 ft 493 kts 72°
2026-04-25 21:55 47.63525 -47.33075 28275 ft 493 kts 73°
2026-04-25 21:56 47.65680 -47.23420 28275 ft 493 kts 73°
2026-04-25 21:56 47.67828 -47.13757 28276 ft 493 kts 73°
2026-04-25 21:57 47.69965 -47.04078 28269 ft 494 kts 74°
2026-04-25 21:57 47.72111 -46.94321 28290 ft 501 kts 74°
2026-04-25 21:58 47.74272 -46.84453 28298 ft 503 kts 74°
2026-04-25 21:58 47.76428 -46.74568 28301 ft 502 kts 73°
2026-04-25 21:59 47.78552 -46.64778 28285 ft 500 kts 75°
2026-04-25 21:59 47.80676 -46.54939 28315 ft 499 kts 74°
2026-04-25 22:00 47.83842 -46.40181 28332 ft 499 kts 75°
2026-04-25 22:00 47.85946 -46.30317 28333 ft 500 kts 74°
2026-04-25 22:01 47.88044 -46.20439 28332 ft 501 kts 75°
2026-04-25 22:01 47.89783 -46.12207 28345 ft 502 kts 75°
2026-04-25 22:02 47.92227 -46.00586 28353 ft 504 kts 76°
2026-04-25 22:02 47.94319 -45.90588 28373 ft 506 kts 76°
2026-04-25 22:03 47.96410 -45.80545 28348 ft 507 kts 76°
2026-04-25 22:03 47.98494 -45.70483 28378 ft 507 kts 76°
2026-04-25 22:04 48.00569 -45.60413 28385 ft 507 kts 76°
2026-04-25 22:04 48.02633 -45.50346 28399 ft 507 kts 76°
2026-04-25 22:05 48.04688 -45.40277 28397 ft 506 kts 76°
2026-04-25 22:05 48.06715 -45.30288 28408 ft 506 kts 76°
2026-04-25 22:06 48.08749 -45.20217 28422 ft 506 kts 76°
2026-04-25 22:06 48.10785 -45.10080 28408 ft 506 kts 76°
2026-04-25 22:07 48.12462 -45.01694 28413 ft 507 kts 77°
2026-04-25 22:07 48.14803 -44.89923 28424 ft 508 kts 77°
2026-04-25 22:08 48.16810 -44.79775 28443 ft 509 kts 77°
2026-04-25 22:08 48.18815 -44.69583 28447 ft 510 kts 77°
2026-04-25 22:09 48.20812 -44.59386 28450 ft 510 kts 77°
2026-04-25 22:09 48.22799 -44.49181 28446 ft 509 kts 78°
2026-04-25 22:10 48.24773 -44.38993 28460 ft 508 kts 78°
2026-04-25 22:10 48.26734 -44.28809 28466 ft 508 kts 78°
2026-04-25 22:11 48.28684 -44.18634 28471 ft 507 kts 78°
2026-04-25 22:11 48.30624 -44.08451 28445 ft 507 kts 78°
2026-04-25 22:12 48.32556 -43.98260 28479 ft 508 kts 79°
2026-04-25 22:12 48.33833 -43.91483 28482 ft 510 kts 79°
2026-04-25 22:13 48.36413 -43.77732 28488 ft 512 kts 79°
2026-04-25 22:13 48.38325 -43.67479 28489 ft 513 kts 79°
2026-04-25 22:14 48.40239 -43.57164 28505 ft 511 kts 79°
2026-04-25 22:14 48.42141 -43.46850 28507 ft 511 kts 79°
2026-04-25 22:15 48.44032 -43.36538 28499 ft 511 kts 80°
2026-04-25 22:16 48.46849 -43.21064 28518 ft 510 kts 80°
2026-04-25 22:16 48.48713 -43.10754 28513 ft 510 kts 80°
2026-04-25 22:17 48.50569 -43.00432 28491 ft 510 kts 81°
2026-04-25 22:17 48.52417 -42.90082 28519 ft 512 kts 81°
2026-04-25 22:18 48.54267 -42.79666 28514 ft 515 kts 81°
2026-04-25 22:18 48.56112 -42.69233 28527 ft 515 kts 81°
2026-04-25 22:19 48.57639 -42.60545 28533 ft 515 kts 82°
2026-04-25 22:19 48.59469 -42.50075 28533 ft 515 kts 82°
2026-04-25 22:20 48.61289 -42.39600 28526 ft 515 kts 82°
2026-04-25 22:20 48.63097 -42.29143 28525 ft 513 kts 82°
2026-04-25 22:21 48.64890 -42.18703 28536 ft 512 kts 82°
2026-04-25 22:21 48.66670 -42.08269 28538 ft 512 kts 82°
2026-04-25 22:22 48.68438 -41.97842 28495 ft 512 kts 82°
2026-04-25 22:22 48.70200 -41.87388 28500 ft 513 kts 83°
2026-04-25 22:23 48.71954 -41.76923 28542 ft 514 kts 83°
2026-04-25 22:23 48.73703 -41.66422 28541 ft 514 kts 83°
2026-04-25 22:24 48.75445 -41.55904 28544 ft 515 kts 83°
2026-04-25 22:24 48.77176 -41.45387 28550 ft 514 kts 83°
2026-04-25 22:25 48.78894 -41.34883 28545 ft 513 kts 84°
2026-04-25 22:25 48.80601 -41.24377 28550 ft 513 kts 84°
2026-04-25 22:26 48.82287 -41.13935 28551 ft 513 kts 84°
2026-04-25 22:26 48.83972 -41.03427 28552 ft 513 kts 84°
2026-04-25 22:27 48.85650 -40.92908 28491 ft 512 kts 85°
2026-04-25 22:27 48.87319 -40.82373 28544 ft 514 kts 85°
2026-04-25 22:28 48.88984 -40.71770 28566 ft 518 kts 85°
2026-04-25 22:28 48.90652 -40.61108 28561 ft 519 kts 85°
2026-04-25 22:29 48.92315 -40.50419 28525 ft 519 kts 85°
2026-04-25 22:29 48.93969 -40.39674 28577 ft 530 kts 85°
2026-04-25 22:30 48.95664 -40.28554 28582 ft 548 kts 85°
2026-04-25 22:30 48.96529 -40.22902 28569 ft 549 kts 85°
2026-04-25 22:30 48.97966 -40.13507 28560 ft 548 kts 85°
2026-04-25 22:31 49.00004 -40.00315 28561 ft 550 kts 83°
2026-04-25 22:31 49.02560 -39.89284 28576 ft 559 kts 76°
2026-04-25 22:32 49.05413 -39.78244 28583 ft 560 kts 76°
2026-04-25 22:32 49.08240 -39.67168 28526 ft 560 kts 77°
2026-04-25 22:33 49.11013 -39.56062 28577 ft 560 kts 77°
2026-04-25 22:33 49.13763 -39.44910 28574 ft 562 kts 77°
2026-04-25 22:34 49.16506 -39.33741 28579 ft 562 kts 77°
2026-04-25 22:34 49.19244 -39.22553 28540 ft 562 kts 77°
2026-04-25 22:35 49.21972 -39.11358 28580 ft 562 kts 77°
2026-04-25 22:35 49.24691 -39.00139 28583 ft 563 kts 77°
2026-04-25 22:36 49.27404 -38.88889 28579 ft 563 kts 77°
2026-04-25 22:36 49.30106 -38.77627 28583 ft 563 kts 78°
2026-04-25 22:37 49.32797 -38.66355 28586 ft 563 kts 78°
2026-04-25 22:37 49.35472 -38.55088 28588 ft 562 kts 78°
2026-04-25 22:38 49.38137 -38.43805 28539 ft 562 kts 78°
2026-04-25 22:38 49.40788 -38.32525 28591 ft 562 kts 78°
2026-04-25 22:39 49.43432 -38.21212 28601 ft 563 kts 78°
2026-04-25 22:39 49.46069 -38.09870 28599 ft 564 kts 78°
2026-04-25 22:40 49.48693 -37.98526 28559 ft 562 kts 77°
2026-04-25 22:40 49.51301 -37.87199 28597 ft 561 kts 78°
2026-04-25 22:41 49.53892 -37.75876 28601 ft 561 kts 78°
2026-04-25 22:41 49.56454 -37.64616 28603 ft 561 kts 78°
2026-04-25 22:42 49.59036 -37.53211 28599 ft 560 kts 78°
2026-04-25 22:42 49.61592 -37.41864 28610 ft 560 kts 78°
2026-04-25 22:43 49.64120 -37.30573 28607 ft 561 kts 78°
2026-04-25 22:43 49.66654 -37.19198 28566 ft 561 kts 77°
2026-04-25 22:44 49.69177 -37.07813 28614 ft 560 kts 77°
2026-04-25 22:44 49.71689 -36.96419 28620 ft 560 kts 77°
2026-04-25 22:45 49.74189 -36.85009 28634 ft 560 kts 78°
2026-04-25 22:45 49.76676 -36.73594 28616 ft 560 kts 77°
2026-04-25 22:46 49.79151 -36.62179 28633 ft 559 kts 77°
2026-04-25 22:46 49.81614 -36.50756 28641 ft 559 kts 77°
2026-04-25 22:47 49.84063 -36.39326 28649 ft 559 kts 78°
2026-04-25 22:47 49.86498 -36.27901 28644 ft 558 kts 77°
2026-04-25 22:48 49.88918 -36.16484 28624 ft 558 kts 77°
2026-04-25 22:48 49.91333 -36.05019 28668 ft 560 kts 77°
2026-04-25 22:49 49.93745 -35.93507 28669 ft 562 kts 77°
2026-04-25 22:49 49.96144 -35.81991 28671 ft 560 kts 77°
2026-04-25 22:50 49.98530 -35.70485 28689 ft 559 kts 77°
2026-04-25 22:50 50.00898 -35.58992 28680 ft 558 kts 77°
2026-04-25 22:51 50.03248 -35.47512 28670 ft 557 kts 77°
2026-04-25 22:51 50.05584 -35.36040 28705 ft 556 kts 77°
2026-04-25 22:52 50.07904 -35.24575 28709 ft 555 kts 77°
2026-04-25 22:52 50.09822 -35.15046 28717 ft 555 kts 77°
2026-04-25 22:53 50.12493 -35.01701 28707 ft 555 kts 77°
2026-04-25 22:53 50.14773 -34.90236 28722 ft 554 kts 77°
2026-04-25 22:54 50.17041 -34.78765 28737 ft 553 kts 77°
2026-04-25 22:54 50.19297 -34.67286 28751 ft 553 kts 77°
2026-04-25 22:55 50.21540 -34.55807 28754 ft 553 kts 78°
2026-04-25 22:55 50.23772 -34.44309 28758 ft 553 kts 78°
2026-04-25 22:56 50.25994 -34.32800 28760 ft 553 kts 78°
2026-04-25 22:56 50.28203 -34.21286 28757 ft 553 kts 78°
2026-04-25 22:57 50.30403 -34.09750 28770 ft 553 kts 77°
2026-04-25 22:57 50.32593 -33.98197 28786 ft 553 kts 78°
2026-04-25 22:58 50.34768 -33.86650 28788 ft 553 kts 78°
2026-04-25 22:58 50.36932 -33.75092 28798 ft 553 kts 78°
2026-04-25 22:59 50.39083 -33.63527 28798 ft 553 kts 78°
2026-04-25 22:59 50.41220 -33.51968 28803 ft 552 kts 78°
2026-04-25 23:00 50.43349 -33.40383 28819 ft 553 kts 78°
2026-04-25 23:00 50.45450 -33.28869 28813 ft 553 kts 77°
2026-04-25 23:01 50.47555 -33.17265 28833 ft 553 kts 77°
2026-04-25 23:01 50.49653 -33.05629 28836 ft 554 kts 78°
2026-04-25 23:02 50.51741 -32.93975 28844 ft 554 kts 78°
2026-04-25 23:02 50.53815 -32.82316 28847 ft 554 kts 77°
2026-04-25 23:03 50.55882 -32.70628 28866 ft 555 kts 77°
2026-04-25 23:03 50.57935 -32.58939 28864 ft 555 kts 77°
2026-04-25 23:04 50.59633 -32.49212 28872 ft 555 kts 78°
2026-04-25 23:04 50.62007 -32.35519 28851 ft 555 kts 77°
2026-04-25 23:05 50.64028 -32.23785 28891 ft 555 kts 77°
2026-04-25 23:05 50.66040 -32.12022 28899 ft 556 kts 77°
2026-04-25 23:06 50.68042 -32.00234 28908 ft 557 kts 78°
2026-04-25 23:06 50.70032 -31.88437 28898 ft 557 kts 77°
2026-04-25 23:07 50.71999 -31.76705 28919 ft 557 kts 77°
2026-04-25 23:07 50.73964 -31.64899 28929 ft 556 kts 77°
2026-04-25 23:08 50.75918 -31.53080 28933 ft 556 kts 78°
2026-04-25 23:08 50.77857 -31.41262 28943 ft 555 kts 77°
2026-04-25 23:09 50.79781 -31.29458 28960 ft 554 kts 77°
2026-04-25 23:09 50.81691 -31.17657 28955 ft 554 kts 78°
2026-04-25 23:10 50.83281 -31.07766 28963 ft 554 kts 78°
2026-04-25 23:10 50.85169 -30.95950 28956 ft 553 kts 78°
2026-04-25 23:11 50.87030 -30.84215 28973 ft 553 kts 78°
2026-04-25 23:11 50.88892 -30.72395 28982 ft 553 kts 78°
2026-04-25 23:12 50.90740 -30.60575 28991 ft 553 kts 78°
2026-04-25 23:12 50.92575 -30.48753 28993 ft 552 kts 78°
2026-04-25 23:13 50.94397 -30.36925 28970 ft 552 kts 78°
2026-04-25 23:13 50.96208 -30.25083 29001 ft 552 kts 78°
2026-04-25 23:14 50.98006 -30.13245 29008 ft 552 kts 78°
2026-04-25 23:14 50.99823 -30.01393 29018 ft 553 kts 76°
2026-04-25 23:15 51.02413 -29.89876 29028 ft 555 kts 69°
2026-04-25 23:15 51.05342 -29.78527 29021 ft 555 kts 69°
2026-04-25 23:16 51.08244 -29.67157 29021 ft 555 kts 69°
2026-04-25 23:16 51.11093 -29.55755 29028 ft 554 kts 70°
2026-04-25 23:17 51.13909 -29.44344 29035 ft 553 kts 70°
2026-04-25 23:17 51.16711 -29.32935 29041 ft 553 kts 70°
2026-04-25 23:18 51.19508 -29.21500 29039 ft 553 kts 70°
2026-04-25 23:18 51.22271 -29.10156 29045 ft 553 kts 70°
2026-04-25 23:19 51.25048 -28.98697 29051 ft 553 kts 70°
2026-04-25 23:19 51.27809 -28.87240 29052 ft 553 kts 70°
2026-04-25 23:20 51.30559 -28.75770 29054 ft 553 kts 70°
2026-04-25 23:20 51.33298 -28.64285 29059 ft 553 kts 70°
2026-04-25 23:21 51.36027 -28.52781 29063 ft 553 kts 70°
2026-04-25 23:21 51.38741 -28.41279 29065 ft 553 kts 70°
2026-04-25 23:22 51.41443 -28.29766 29067 ft 552 kts 70°
2026-04-25 23:23 51.45471 -28.12487 29075 ft 552 kts 71°
2026-04-25 23:23 51.48142 -28.00950 29077 ft 552 kts 71°
2026-04-25 23:24 51.50802 -27.89401 29079 ft 551 kts 70°
2026-04-25 23:24 51.53448 -27.77851 29082 ft 551 kts 71°
2026-04-25 23:25 51.56084 -27.66280 29082 ft 551 kts 71°
2026-04-25 23:25 51.58690 -27.54774 29084 ft 551 kts 71°
2026-04-25 23:26 51.61301 -27.43188 29089 ft 551 kts 71°
2026-04-25 23:26 51.63897 -27.31606 29090 ft 550 kts 71°
2026-04-25 23:27 51.66482 -27.20004 29092 ft 550 kts 71°
2026-04-25 23:27 51.69055 -27.08392 29089 ft 550 kts 71°
2026-04-25 23:28 51.71614 -26.96780 29091 ft 550 kts 71°
2026-04-25 23:28 51.74163 -26.85150 29095 ft 550 kts 71°
2026-04-25 23:29 51.76698 -26.73515 29104 ft 550 kts 71°
2026-04-25 23:29 51.79223 -26.61862 29105 ft 549 kts 71°
2026-04-25 23:30 51.81731 -26.50219 29105 ft 548 kts 71°
2026-04-25 23:30 51.84223 -26.38589 29106 ft 548 kts 71°
2026-04-25 23:31 51.86703 -26.26944 29110 ft 547 kts 71°
2026-04-25 23:31 51.89171 -26.15290 29112 ft 547 kts 70°
2026-04-25 23:32 51.91621 -26.03654 29108 ft 546 kts 71°
2026-04-25 23:32 51.94058 -25.92012 29109 ft 545 kts 71°
2026-04-25 23:33 51.96482 -25.80364 29111 ft 545 kts 71°
2026-04-25 23:33 51.98878 -25.68787 29112 ft 545 kts 71°
2026-04-25 23:34 52.01278 -25.57117 29115 ft 545 kts 71°
2026-04-25 23:34 52.03671 -25.45417 29115 ft 546 kts 71°
2026-04-25 23:35 52.06049 -25.33718 29114 ft 546 kts 71°
2026-04-25 23:35 52.08417 -25.22001 29116 ft 545 kts 71°
2026-04-25 23:36 52.10770 -25.10286 29116 ft 545 kts 71°
2026-04-25 23:36 52.13115 -24.98547 29111 ft 545 kts 71°
2026-04-25 23:37 52.15443 -24.86815 29110 ft 545 kts 71°
2026-04-25 23:37 52.17762 -24.75060 29111 ft 545 kts 71°
2026-04-25 23:38 52.20068 -24.63300 29112 ft 545 kts 71°
2026-04-25 23:38 52.22364 -24.51519 29111 ft 545 kts 71°
2026-04-25 23:39 52.24648 -24.39726 29115 ft 545 kts 71°
2026-04-25 23:39 52.26922 -24.27913 29111 ft 546 kts 71°
2026-04-25 23:40 52.29184 -24.16088 29115 ft 546 kts 72°
2026-04-25 23:40 52.31437 -24.04238 29114 ft 546 kts 72°
2026-04-25 23:41 52.33677 -23.92380 29111 ft 546 kts 72°
2026-04-25 23:41 52.35893 -23.80576 29113 ft 547 kts 72°
2026-04-25 23:42 52.38112 -23.68677 29114 ft 547 kts 72°
2026-04-25 23:42 52.40322 -23.56755 29113 ft 547 kts 72°
2026-04-25 23:43 52.42520 -23.44818 29123 ft 547 kts 72°
2026-04-25 23:43 52.44706 -23.32869 29114 ft 548 kts 72°
2026-04-25 23:44 52.46885 -23.20886 29113 ft 548 kts 72°
2026-04-25 23:44 52.49048 -23.08909 29112 ft 548 kts 72°
2026-04-25 23:45 52.51200 -22.96910 29119 ft 548 kts 72°
2026-04-25 23:45 52.53339 -22.84908 29116 ft 548 kts 73°
2026-04-25 23:46 52.55468 -22.72878 29112 ft 548 kts 73°
2026-04-25 23:46 52.57582 -22.60856 29115 ft 548 kts 73°
2026-04-25 23:47 52.59684 -22.48823 29121 ft 548 kts 73°
2026-04-25 23:47 52.61776 -22.36767 29116 ft 548 kts 73°
2026-04-25 23:48 52.63856 -22.24694 29115 ft 548 kts 73°
2026-04-25 23:48 52.65920 -22.12629 29122 ft 547 kts 73°
2026-04-25 23:49 52.67966 -22.00589 29128 ft 545 kts 73°
2026-04-25 23:49 52.69998 -21.88549 29121 ft 545 kts 73°
2026-04-25 23:50 52.72003 -21.76589 29123 ft 544 kts 73°
2026-04-25 23:50 52.74007 -21.64550 29122 ft 544 kts 73°
2026-04-25 23:51 52.76000 -21.52491 29127 ft 544 kts 73°
2026-04-25 23:51 52.77980 -21.40422 29124 ft 544 kts 73°
2026-04-25 23:52 52.79949 -21.28345 29125 ft 544 kts 73°
2026-04-25 23:52 52.81903 -21.16264 29124 ft 544 kts 74°
2026-04-25 23:53 52.83847 -21.04162 29125 ft 544 kts 74°
2026-04-25 23:53 52.85777 -20.92058 29128 ft 545 kts 74°
2026-04-25 23:54 52.87697 -20.79933 29128 ft 545 kts 74°
2026-04-25 23:54 52.89604 -20.67795 29128 ft 545 kts 74°
2026-04-25 23:55 52.91499 -20.55647 29128 ft 545 kts 74°
2026-04-25 23:55 52.93381 -20.43489 29128 ft 544 kts 74°
2026-04-25 23:56 52.95250 -20.31333 29125 ft 544 kts 75°
2026-04-25 23:56 52.97107 -20.19156 29129 ft 544 kts 75°
2026-04-25 23:57 52.98952 -20.06976 29129 ft 544 kts 75°
2026-04-25 23:57 53.00225 -19.94603 29125 ft 545 kts 85°
2026-04-25 23:58 53.00446 -19.82041 29135 ft 545 kts 88°
2026-04-25 23:58 53.00610 -19.69457 29127 ft 545 kts 88°
2026-04-25 23:59 53.00808 -19.56877 29139 ft 545 kts 88°
2026-04-25 23:59 53.01022 -19.44286 29135 ft 545 kts 88°
2026-04-26 00:00 53.01225 -19.31787 29139 ft 546 kts 88°
2026-04-26 00:00 53.01414 -19.19189 29143 ft 546 kts 88°
2026-04-26 00:01 53.01559 -19.08637 29140 ft 545 kts 88°
2026-04-26 00:01 53.01744 -18.94019 29139 ft 544 kts 88°
2026-04-26 00:02 53.01866 -18.83509 29141 ft 543 kts 88°
2026-04-26 00:02 53.01999 -18.71052 29145 ft 543 kts 88°
2026-04-26 00:03 53.02120 -18.58542 29140 ft 541 kts 88°
2026-04-26 00:03 53.02227 -18.46072 29138 ft 539 kts 89°
2026-04-26 00:04 53.02321 -18.33645 29150 ft 538 kts 89°
2026-04-26 00:04 53.02402 -18.21224 29148 ft 538 kts 89°
2026-04-26 00:05 53.02470 -18.08812 29151 ft 538 kts 89°
2026-04-26 00:05 53.02525 -17.96378 29152 ft 538 kts 90°
2026-04-26 00:06 53.02567 -17.83934 29154 ft 539 kts 90°
2026-04-26 00:06 53.02596 -17.71480 29157 ft 539 kts 90°
2026-04-26 00:07 53.02613 -17.59027 29167 ft 539 kts 90°
2026-04-26 00:07 53.02616 -17.46572 29159 ft 539 kts 91°
2026-04-26 00:08 53.02606 -17.34123 29158 ft 539 kts 91°
2026-04-26 00:08 53.02583 -17.21750 29170 ft 539 kts 91°
2026-04-26 00:09 53.02547 -17.09306 29164 ft 539 kts 91°
2026-04-26 00:09 53.02499 -16.96866 29156 ft 538 kts 91°
2026-04-26 00:10 53.02438 -16.84492 29163 ft 535 kts 92°
2026-04-26 00:10 53.02364 -16.72162 29169 ft 533 kts 92°
2026-04-26 00:11 53.02277 -16.59866 29172 ft 533 kts 92°
2026-04-26 00:11 53.02178 -16.47563 29172 ft 533 kts 92°
2026-04-26 00:12 53.02066 -16.35249 29175 ft 533 kts 93°
2026-04-26 00:12 53.01941 -16.22920 29184 ft 534 kts 93°
2026-04-26 00:13 53.01803 -16.10578 29182 ft 535 kts 93°
2026-04-26 00:13 53.01653 -15.98241 29186 ft 535 kts 93°
2026-04-26 00:14 53.01489 -15.85894 29185 ft 535 kts 93°
2026-04-26 00:14 53.01314 -15.73631 29187 ft 535 kts 93°
2026-04-26 00:15 53.01126 -15.61300 29193 ft 534 kts 93°
2026-04-26 00:15 53.00924 -15.48960 29193 ft 534 kts 94°
2026-04-26 00:16 53.00711 -15.36624 29179 ft 535 kts 94°
2026-04-26 00:16 53.00484 -15.24292 29187 ft 535 kts 94°
2026-04-26 00:17 53.00243 -15.11946 29198 ft 535 kts 95°
2026-04-26 00:17 52.99993 -14.99595 29196 ft 535 kts 95°
2026-04-26 00:18 52.99938 -14.87231 29201 ft 536 kts 92°
2026-04-26 00:18 53.00042 -14.74845 29200 ft 536 kts 92°
2026-04-26 00:19 53.00102 -14.62460 29204 ft 536 kts 93°
2026-04-26 00:19 53.00110 -14.50083 29208 ft 536 kts 93°
2026-04-26 00:20 53.00098 -14.37712 29204 ft 535 kts 93°
2026-04-26 00:20 53.00078 -14.25371 29204 ft 534 kts 94°
2026-04-26 00:21 53.00048 -14.13048 29218 ft 534 kts 94°
2026-04-26 00:21 52.99783 -14.00747 29208 ft 531 kts 100°
2026-04-26 00:22 52.98335 -13.88832 29224 ft 525 kts 109°
2026-04-26 00:22 52.96384 -13.77121 29210 ft 528 kts 109°
2026-04-26 00:23 52.94454 -13.65431 29204 ft 530 kts 109°
2026-04-26 00:23 52.92529 -13.53617 29228 ft 531 kts 109°
2026-04-26 00:24 52.90604 -13.41797 29234 ft 532 kts 109°
2026-04-26 00:24 52.88668 -13.29990 29220 ft 531 kts 109°
2026-04-26 00:25 52.86718 -13.18199 29226 ft 531 kts 109°
2026-04-26 00:25 52.84754 -13.06422 29227 ft 531 kts 109°
2026-04-26 00:26 52.82779 -12.94652 29229 ft 531 kts 109°
2026-04-26 00:26 52.80791 -12.82891 29229 ft 531 kts 110°
2026-04-26 00:27 52.78795 -12.71152 29236 ft 531 kts 110°
2026-04-26 00:27 52.76784 -12.59414 29229 ft 531 kts 110°
2026-04-26 00:28 52.74761 -12.47678 29237 ft 532 kts 110°
2026-04-26 00:28 52.72727 -12.35956 29239 ft 532 kts 110°
2026-04-26 00:29 52.70678 -12.24230 29242 ft 532 kts 110°
2026-04-26 00:29 52.68620 -12.12522 29241 ft 532 kts 110°
2026-04-26 00:30 52.66546 -12.00805 29231 ft 532 kts 110°
2026-04-26 00:30 52.64461 -11.89105 29232 ft 532 kts 110°
2026-04-26 00:31 52.62367 -11.77421 29244 ft 532 kts 110°
2026-04-26 00:31 52.60264 -11.65769 29244 ft 531 kts 110°
2026-04-26 00:32 52.58164 -11.54202 29234 ft 531 kts 110°
2026-04-26 00:32 52.54967 -11.36745 29244 ft 532 kts 110°
2026-04-26 00:33 52.52819 -11.25099 29246 ft 532 kts 111°
2026-04-26 00:33 52.50660 -11.13468 29252 ft 532 kts 111°
2026-04-26 00:34 52.48491 -11.01859 29241 ft 532 kts 111°
2026-04-26 00:34 52.46314 -10.90280 29256 ft 531 kts 111°
2026-04-26 00:35 52.44125 -10.78706 29253 ft 531 kts 111°
2026-04-26 00:35 52.41925 -10.67150 29254 ft 531 kts 111°
2026-04-26 00:36 52.39714 -10.55599 29243 ft 531 kts 111°
2026-04-26 00:36 52.37492 -10.44067 29255 ft 531 kts 111°
2026-04-26 00:37 52.35273 -10.32618 29261 ft 531 kts 111°
2026-04-26 00:37 52.33008 -10.21015 29265 ft 541 kts 111°
2026-04-26 00:38 52.30752 -10.09488 29250 ft 521 kts 111°
2026-04-26 00:38 52.28509 -9.98123 29264 ft 531 kts 111°
2026-04-26 00:39 52.26225 -9.86635 29249 ft 533 kts 111°
2026-04-26 00:39 52.23927 -9.75126 29252 ft 533 kts 111°
2026-04-26 00:40 52.21621 -9.63636 29252 ft 533 kts 111°
2026-04-26 00:40 52.19303 -9.52164 29252 ft 532 kts 112°
2026-04-26 00:41 52.16979 -9.40726 29243 ft 532 kts 112°
2026-04-26 00:41 52.14643 -9.29299 29244 ft 531 kts 111°
2026-04-26 00:42 52.12296 -9.17886 29246 ft 532 kts 111°
2026-04-26 00:42 52.09938 -9.06475 29239 ft 532 kts 112°
2026-04-26 00:43 52.07566 -8.95065 29238 ft 532 kts 112°
2026-04-26 00:43 52.05183 -8.83675 29223 ft 533 kts 112°
2026-04-26 00:44 52.02802 -8.72351 29224 ft 533 kts 112°
2026-04-26 00:44 52.00377 -8.60885 29218 ft 534 kts 112°
2026-04-26 00:45 51.98364 -8.51414 29217 ft 534 kts 112°
2026-04-26 00:45 51.95537 -8.38191 29210 ft 534 kts 112°
2026-04-26 00:46 51.93093 -8.26828 29203 ft 534 kts 112°
2026-04-26 00:46 51.90633 -8.15455 29213 ft 535 kts 112°
2026-04-26 00:47 51.88161 -8.04086 29211 ft 536 kts 112°
2026-04-26 00:47 51.85674 -7.92714 29214 ft 536 kts 112°
2026-04-26 00:48 51.83175 -7.81349 29218 ft 536 kts 112°
2026-04-26 00:48 51.80665 -7.69999 29220 ft 537 kts 112°
2026-04-26 00:49 51.78141 -7.58643 29226 ft 537 kts 112°
2026-04-26 00:49 51.75606 -7.47302 29459 ft 535 kts 113°
2026-04-26 00:50 51.74355 -7.41716 30399 ft 523 kts 113°
2026-04-26 00:50 51.73126 -7.36241 31151 ft 516 kts 113°
2026-04-26 00:50 51.71903 -7.30821 31753 ft 513 kts 113°
2026-04-26 00:50 51.70687 -7.25445 32354 ft 509 kts 113°
2026-04-26 00:51 51.69473 -7.20097 33000 ft 505 kts 113°
2026-04-26 00:51 51.68271 -7.14810 33657 ft 502 kts 113°
2026-04-26 00:51 51.67072 -7.09550 34307 ft 498 kts 113°
2026-04-26 00:51 51.65878 -7.04325 34735 ft 498 kts 113°
2026-04-26 00:52 51.64693 -6.99150 35027 ft 500 kts 113°
2026-04-26 00:52 51.63482 -6.93876 35176 ft 506 kts 113°
2026-04-26 00:52 51.61198 -6.83098 35228 ft 510 kts 107°
2026-04-26 00:53 51.59480 -6.72096 35233 ft 505 kts 106°
2026-04-26 00:53 51.58065 -6.62904 35244 ft 506 kts 106°
2026-04-26 00:54 51.56348 -6.52004 35239 ft 507 kts 107°
2026-04-26 00:54 51.54586 -6.41027 35245 ft 508 kts 107°
2026-04-26 00:55 51.52807 -6.30051 35244 ft 508 kts 107°
2026-04-26 00:55 51.51006 -6.19003 35251 ft 508 kts 107°
2026-04-26 00:56 51.49219 -6.08101 35234 ft 508 kts 107°
2026-04-26 00:56 51.47411 -5.97145 35249 ft 508 kts 107°
2026-04-26 00:57 51.45594 -5.86202 35248 ft 508 kts 107°
2026-04-26 00:57 51.43767 -5.75266 35242 ft 508 kts 107°
2026-04-26 00:58 51.41931 -5.64350 35232 ft 507 kts 107°
2026-04-26 00:58 51.40085 -5.53440 35238 ft 507 kts 107°
2026-04-26 00:59 51.38229 -5.42545 35239 ft 508 kts 107°
2026-04-26 00:59 51.36362 -5.31646 35239 ft 508 kts 107°
2026-04-26 01:00 51.34486 -5.20759 35242 ft 508 kts 107°
2026-04-26 01:00 51.32612 -5.09949 35240 ft 508 kts 107°
2026-04-26 01:01 51.30978 -4.98963 35234 ft 509 kts 99°
2026-04-26 01:01 51.30090 -4.87727 35243 ft 510 kts 98°
2026-04-26 01:02 51.29231 -4.76492 35234 ft 510 kts 98°
2026-04-26 01:02 51.28329 -4.65260 35236 ft 510 kts 98°
2026-04-26 01:03 51.27395 -4.54039 35240 ft 510 kts 98°
2026-04-26 01:03 51.26445 -4.42831 35239 ft 509 kts 98°
2026-04-26 01:04 51.25486 -4.31624 35238 ft 509 kts 98°
2026-04-26 01:04 51.24517 -4.20431 35235 ft 509 kts 98°
2026-04-26 01:05 51.23540 -4.09241 35236 ft 509 kts 98°
2026-04-26 01:05 51.22558 -3.98134 35240 ft 509 kts 98°
2026-04-26 01:06 51.21560 -3.86964 35240 ft 509 kts 98°
2026-04-26 01:06 51.20549 -3.75784 35237 ft 509 kts 98°
2026-04-26 01:07 51.19530 -3.64627 35242 ft 508 kts 98°
2026-04-26 01:07 51.18501 -3.53482 35240 ft 508 kts 98°
2026-04-26 01:08 51.17462 -3.42348 35242 ft 508 kts 98°
2026-04-26 01:08 51.16411 -3.31211 35251 ft 508 kts 98°
2026-04-26 01:09 51.15351 -3.20101 35243 ft 508 kts 98°
2026-04-26 01:09 51.14281 -3.08988 35241 ft 507 kts 98°
2026-04-26 01:10 51.13200 -2.97878 35244 ft 507 kts 98°
2026-04-26 01:10 51.12109 -2.86785 35242 ft 507 kts 98°
2026-04-26 01:11 51.11008 -2.75694 35245 ft 508 kts 99°
2026-04-26 01:11 51.09894 -2.64585 35238 ft 509 kts 99°
2026-04-26 01:12 51.08777 -2.53557 35244 ft 509 kts 99°
2026-04-26 01:12 51.07640 -2.42437 35244 ft 509 kts 99°
2026-04-26 01:13 51.06492 -2.31317 35251 ft 509 kts 99°
2026-04-26 01:13 51.05335 -2.20217 35250 ft 509 kts 99°
2026-04-26 01:14 51.04169 -2.09136 35256 ft 509 kts 99°
2026-04-26 01:14 51.02990 -1.98056 35258 ft 508 kts 99°
2026-04-26 01:15 51.01725 -1.87016 35270 ft 508 kts 100°
2026-04-26 01:15 51.00425 -1.76003 35263 ft 507 kts 100°
2026-04-26 01:16 50.99129 -1.64987 35262 ft 507 kts 100°
2026-04-26 01:16 50.97831 -1.53995 35265 ft 507 kts 100°
2026-04-26 01:17 50.96531 -1.43002 35266 ft 507 kts 99°
2026-04-26 01:17 50.96185 -1.31888 35274 ft 505 kts 85°
2026-04-26 01:18 50.97260 -1.20926 35275 ft 503 kts 75°
2026-04-26 01:18 50.98868 -1.10132 35267 ft 503 kts 75°
2026-04-26 01:19 51.00391 -0.99271 35251 ft 504 kts 76°
2026-04-26 01:19 51.01960 -0.88440 35273 ft 503 kts 75°
2026-04-26 01:20 51.03410 -0.77667 35256 ft 501 kts 76°
2026-04-26 01:20 51.04542 -0.66793 35255 ft 500 kts 89°
2026-04-26 01:21 51.04146 -0.61319 35277 ft 501 kts 103°
2026-04-26 01:21 51.03030 -0.56076 35253 ft 502 kts 116°
2026-04-26 01:21 50.99387 -0.46685 35275 ft 501 kts 123°
2026-04-26 01:22 50.95622 -0.37338 35262 ft 504 kts 122°
2026-04-26 01:22 50.91908 -0.27905 35258 ft 506 kts 122°
2026-04-26 01:23 50.88196 -0.18419 35272 ft 507 kts 122°
2026-04-26 01:23 50.84469 -0.08936 35267 ft 507 kts 122°
2026-04-26 01:24 50.80728 0.00538 35274 ft 507 kts 122°
2026-04-26 01:24 50.76788 0.09759 35275 ft 506 kts 130°
2026-04-26 01:25 50.71916 0.17718 35253 ft 503 kts 141°
2026-04-26 01:25 50.66438 0.24586 35255 ft 502 kts 143°
2026-04-26 01:26 50.60987 0.31442 35262 ft 501 kts 142°
2026-04-26 01:26 50.55564 0.38345 35265 ft 501 kts 142°
2026-04-26 01:27 50.50141 0.45244 35261 ft 502 kts 142°
2026-04-26 01:27 50.44660 0.52183 33902 ft 519 kts 142°
2026-04-26 01:28 50.41909 0.55652 32398 ft 509 kts 142°
2026-04-26 01:28 50.39164 0.59111 30742 ft 509 kts 142°
2026-04-26 01:28 50.36381 0.62613 29392 ft 512 kts 142°
2026-04-26 01:28 50.33628 0.66074 28453 ft 500 kts 142°
2026-04-26 01:29 50.30942 0.69452 27532 ft 498 kts 142°
2026-04-26 01:29 50.28239 0.72848 27135 ft 498 kts 142°
2026-04-26 01:29 50.25556 0.76216 27005 ft 492 kts 142°
2026-04-26 01:29 50.22906 0.79538 26887 ft 485 kts 142°
2026-04-26 01:30 50.20284 0.82820 26684 ft 481 kts 142°
2026-04-26 01:30 50.17670 0.86083 25988 ft 481 kts 142°
2026-04-26 01:30 50.15064 0.89323 25337 ft 476 kts 142°
2026-04-26 01:30 50.12487 0.92519 24765 ft 471 kts 142°
2026-04-26 01:31 50.09964 0.95646 24591 ft 456 kts 142°
2026-04-26 01:31 50.07518 0.98675 24383 ft 443 kts 142°
2026-04-26 01:31 50.05097 1.01530 24115 ft 430 kts 148°
2026-04-26 01:31 50.02491 1.03752 23638 ft 425 kts 156°
2026-04-26 01:32 49.99831 1.05686 23146 ft 420 kts 157°
2026-04-26 01:32 49.97184 1.07548 22680 ft 416 kts 157°
2026-04-26 01:32 49.94577 1.09393 22219 ft 403 kts 156°
2026-04-26 01:32 49.92046 1.11217 21825 ft 399 kts 156°
2026-04-26 01:33 49.89548 1.13047 21401 ft 396 kts 155°
2026-04-26 01:33 49.87063 1.14887 20979 ft 395 kts 155°
2026-04-26 01:33 49.84594 1.16725 20567 ft 394 kts 155°
2026-04-26 01:33 49.82123 1.18569 20155 ft 393 kts 155°
2026-04-26 01:34 49.79674 1.20398 19739 ft 390 kts 155°
2026-04-26 01:34 49.77241 1.22213 19328 ft 387 kts 154°
2026-04-26 01:34 49.74827 1.24012 18923 ft 384 kts 154°
2026-04-26 01:34 49.72430 1.25797 18511 ft 381 kts 154°
2026-04-26 01:35 49.70047 1.27568 18049 ft 378 kts 154°
2026-04-26 01:35 49.67688 1.29320 17634 ft 375 kts 154°
2026-04-26 01:35 49.65381 1.31031 17227 ft 371 kts 154°
2026-04-26 01:35 49.63062 1.32749 16838 ft 369 kts 154°
2026-04-26 01:36 49.60757 1.34456 16457 ft 366 kts 154°
2026-04-26 01:36 49.58471 1.36146 16062 ft 364 kts 154°
2026-04-26 01:36 49.56193 1.37829 15671 ft 362 kts 154°
2026-04-26 01:37 49.51638 1.41187 14713 ft 362 kts 154°
2026-04-26 01:37 49.49409 1.42829 14324 ft 353 kts 154°
2026-04-26 01:37 49.47201 1.44453 13931 ft 351 kts 154°
2026-04-26 01:37 49.45002 1.46069 13523 ft 349 kts 154°
2026-04-26 01:38 49.42822 1.47670 13135 ft 346 kts 154°
2026-04-26 01:38 49.40656 1.49259 12765 ft 343 kts 154°
2026-04-26 01:38 49.38512 1.50831 12395 ft 341 kts 154°
2026-04-26 01:38 49.36379 1.52392 12023 ft 338 kts 155°
2026-04-26 01:39 49.34268 1.53935 11670 ft 335 kts 155°
2026-04-26 01:39 49.32220 1.55540 11307 ft 326 kts 146°
2026-04-26 01:39 49.30677 1.57977 11006 ft 312 kts 120°
2026-04-26 01:39 49.29880 1.60944 10841 ft 301 kts 102°
2026-04-26 01:40 49.29588 1.64141 10681 ft 303 kts 93°
2026-04-26 01:40 49.29471 1.67350 10488 ft 301 kts 92°
2026-04-26 01:40 49.29363 1.70529 10302 ft 297 kts 92°
2026-04-26 01:40 49.29208 1.73638 10104 ft 287 kts 100°
2026-04-26 01:41 49.28426 1.76369 9909 ft 279 kts 128°
2026-04-26 01:41 49.27043 1.78376 9658 ft 272 kts 142°
2026-04-26 01:41 49.25557 1.80145 9423 ft 269 kts 142°
2026-04-26 01:41 49.24078 1.81888 9196 ft 267 kts 142°
2026-04-26 01:42 49.22614 1.83610 8990 ft 263 kts 142°
2026-04-26 01:42 49.21179 1.85301 8816 ft 260 kts 142°
2026-04-26 01:42 49.19742 1.86999 8494 ft 261 kts 142°
2026-04-26 01:42 49.18312 1.88691 8179 ft 259 kts 142°
2026-04-26 01:43 49.16895 1.90369 7871 ft 256 kts 142°
2026-04-26 01:43 49.15495 1.92029 7583 ft 254 kts 142°
2026-04-26 01:43 49.14113 1.93667 7389 ft 248 kts 142°
2026-04-26 01:43 49.12787 1.95239 7196 ft 241 kts 142°
2026-04-26 01:44 49.11488 1.96778 7051 ft 229 kts 142°
2026-04-26 01:44 49.10258 1.98235 6868 ft 219 kts 142°
2026-04-26 01:44 49.09075 1.99637 6683 ft 214 kts 142°
2026-04-26 01:44 49.07892 2.01036 6508 ft 215 kts 142°
2026-04-26 01:45 49.06714 2.02429 6339 ft 214 kts 142°
2026-04-26 01:45 49.05541 2.03816 6145 ft 213 kts 141°
2026-04-26 01:45 49.04373 2.05198 5977 ft 212 kts 141°
2026-04-26 01:45 49.03210 2.06573 5790 ft 211 kts 141°
2026-04-26 01:46 49.02442 2.07480 5682 ft 210 kts 142°
2026-04-26 01:46 49.01288 2.08840 5507 ft 210 kts 141°
2026-04-26 01:46 49.00140 2.10193 5333 ft 206 kts 141°
2026-04-26 01:46 48.99015 2.11517 5150 ft 204 kts 142°
2026-04-26 01:47 48.97911 2.12851 5064 ft 202 kts 135°
2026-04-26 01:47 48.97237 2.14699 4951 ft 204 kts 98°
2026-04-26 01:47 48.97217 2.16860 4912 ft 205 kts 86°
2026-04-26 01:47 48.97303 2.19024 4836 ft 205 kts 85°
2026-04-26 01:48 48.97399 2.21133 4728 ft 194 kts 85°
2026-04-26 01:48 48.97486 2.23107 4649 ft 177 kts 85°
2026-04-26 01:48 48.97563 2.24907 4604 ft 165 kts 84°
2026-04-26 01:48 48.97633 2.26577 4611 ft 152 kts 85°
2026-04-26 01:49 48.97721 2.28137 4543 ft 145 kts 81°
2026-04-26 01:49 48.97831 2.29668 4366 ft 147 kts 83°
2026-04-26 01:49 48.97919 2.31220 4153 ft 147 kts 84°
2026-04-26 01:49 48.97988 2.32766 3917 ft 145 kts 84°
2026-04-26 01:50 48.98064 2.34293 3611 ft 144 kts 85°
2026-04-26 01:50 48.98143 2.35776 3352 ft 140 kts 84°
2026-04-26 01:50 48.98231 2.37240 3053 ft 138 kts 83°
2026-04-26 01:50 48.98312 2.38677 2771 ft 135 kts 84°
2026-04-26 01:51 48.98381 2.40097 2569 ft 133 kts 85°
2026-04-26 01:51 48.98466 2.41518 2369 ft 136 kts 83°
2026-04-26 01:51 48.98562 2.42954 2228 ft 136 kts 83°
2026-04-26 01:51 48.98650 2.44375 2108 ft 135 kts 84°
2026-04-26 01:52 48.98729 2.45813 1888 ft 136 kts 84°
2026-04-26 01:52 48.98806 2.47239 1643 ft 137 kts 84°
2026-04-26 01:52 48.98886 2.48694 1434 ft 137 kts 84°
2026-04-26 01:52 48.98953 2.50105 1234 ft 130 kts 84°
2026-04-26 01:53 48.99016 2.51484 1049 ft 132 kts 83°
2026-04-26 01:53 48.99100 2.52903 872 ft 138 kts 82°
2026-04-26 01:53 48.99183 2.54360 671 ft 135 kts 83°
2026-04-26 01:53 48.99256 2.55724 504 ft 129 kts 83°
2026-04-26 01:54 48.99328 2.57099 367 ft 131 kts 83°
2026-04-26 01:54 48.99397 2.58452 358 ft 117 kts 87°
2026-04-26 01:54 48.99441 2.59360 364 ft 58 kts 85°
2026-04-26 01:54 48.99492 2.59859 363 ft 37 kts 61°
2026-04-26 01:55 48.99624 2.59977 364 ft 18 kts 358°
2026-04-26 01:55 48.99747 2.59965 361 ft 18 kts 356°
2026-04-26 01:55 48.99869 2.59969 366 ft 18 kts 20°
2026-04-26 01:55 48.99972 2.60066 364 ft 18 kts
2026-04-26 01:56 49.00026 2.59959 364 ft 12 kts 243°
2026-04-26 01:56 49.00002 2.59835 367 ft 13 kts 264°
2026-04-26 01:56 48.99997 2.59699 359 ft 13 kts 268°
2026-04-26 01:56 48.99990 2.59562 365 ft 13 kts 264°
2026-04-26 01:57 48.99981 2.59419 359 ft 14 kts 265°
2026-04-26 01:57 48.99975 2.59275 365 ft 14 kts 266°
2026-04-26 01:57 48.99963 2.59129 362 ft 14 kts 263°
2026-04-26 01:57 48.99953 2.58978 363 ft 14 kts 267°
2026-04-26 01:58 48.99950 2.58827 364 ft 15 kts 270°
2026-04-26 01:58 49.00014 2.58718 368 ft 15 kts 319°
2026-04-26 01:58 49.00024 2.58565 359 ft 15 kts 262°
2026-04-26 01:58 49.00016 2.58403 366 ft 15 kts 266°
2026-04-26 01:59 49.00007 2.58240 363 ft 16 kts 263°
2026-04-26 01:59 48.99997 2.58075 361 ft 16 kts 265°
2026-04-26 01:59 48.99989 2.57910 365 ft 16 kts 266°
2026-04-26 01:59 48.99982 2.57745 361 ft 16 kts 266°
2026-04-26 02:00 48.99973 2.57579 365 ft 16 kts 265°
2026-04-26 02:00 48.99964 2.57411 359 ft 16 kts 265°
2026-04-26 02:00 48.99955 2.57240 359 ft 16 kts 266°
2026-04-26 02:00 48.99944 2.57067 365 ft 16 kts 264°
2026-04-26 02:01 48.99935 2.56894 359 ft 16 kts 265°
2026-04-26 02:01 48.99925 2.56720 362 ft 17 kts 266°
2026-04-26 02:01 48.99981 2.56584 366 ft 17 kts 341°
2026-04-26 02:01 49.00078 2.56555 367 ft 6 kts 334°
2026-04-26 02:02 49.00103 2.56540 365 ft 4 kts 348°
2026-04-26 02:02 49.00122 2.56540 366 ft 2 kts
2026-04-26 02:02 49.00140 2.56546 362 ft 3 kts 12°
2026-04-26 02:02 49.00160 2.56555 360 ft 0 kts 17°
2026-04-26 02:03 49.00166 2.56557 361 ft 1 kts 17°
2026-04-26 02:03 49.00180 2.56564 362 ft 3 kts 17°
2026-04-26 02:03 49.00186 2.56567 364 ft 1 kts 17°
2026-04-26 02:03 49.00188 2.56568 364 ft 0 kts 18°
2026-04-26 02:22 48.98197 2.12480 5109 ft 202 kts 140°
2026-04-26 02:22 48.97549 2.13495 5038 ft 203 kts 121°
2026-04-26 02:22 48.97192 2.15302 4957 ft 205 kts 91°
2026-04-26 02:23 48.97228 2.17183 4928 ft 205 kts 85°
2026-04-26 02:23 48.97306 2.19088 4857 ft 205 kts 85°
2026-04-26 02:23 48.97387 2.20871 4770 ft 196 kts 85°
2026-04-26 02:23 48.99305 2.56665 410 ft 132 kts 83°
2026-04-26 02:24 48.99106 2.52996 775 ft 139 kts 82°
2026-04-26 02:24 48.98708 2.45407 1982 ft 137 kts 84°
2026-04-26 02:24 48.98864 2.48282 1504 ft 134 kts 84°